When you browse on this site, cookies collect data to enhance your experience and personalize the content and advertising you see.
Visit our Privacy Policy to learn more. By continuing to use the site, you agree to this use of cookies and data.

Hourly Weather Simacota

Today, 9 July, Thursday

Time Temperature Precipitation Wind Pressure Humidity
00:00 +17°C° 0.6 mm 0 mps 665 mmHg 96%
01:00 +17°C° 0 mm 0 mps 664 mmHg 97%
02:00 +17°C° 0.9 mm 0 mps 664 mmHg 97%
03:00 +19°C° 0.9 mm 1 mps 664 mmHg 97%
04:00 +18°C° 0.9 mm 1 mps 664 mmHg 97%
05:00 +19°C° 0.1 mm 1 mps 664 mmHg 96%
06:00 +17°C° 0.1 mm 0 mps 664 mmHg 95%
07:00 +18°C° 0.1 mm 0 mps 665 mmHg 94%
08:00 +20°C° 0.1 mm 0 mps 666 mmHg 85%
09:00 +22°C° 0.1 mm 0 mps 666 mmHg 77%
10:00 +27°C° 0.1 mm 1 mps 667 mmHg 68%
11:00 +28°C° 0.1 mm 1 mps 667 mmHg 65%
12:00 +28°C° 0.1 mm 1 mps 666 mmHg 61%
13:00 +29°C° 0.1 mm 2 mps 666 mmHg 58%
14:00 +28°C° 0.7 mm 1 mps 665 mmHg 64%
15:00 +28°C° 0.7 mm 1 mps 664 mmHg 71%
16:00 +27°C° 0.7 mm 1 mps 664 mmHg 77%
17:00 +25°C° 1.5 mm 1 mps 664 mmHg 83%
18:00 +22°C° 1.5 mm 0 mps 664 mmHg 88%
19:00 +20°C° 1.5 mm 0 mps 663 mmHg 94%
20:00 +20°C° 0.7 mm 0 mps 664 mmHg 94%
21:00 +19°C° 0.7 mm 0 mps 664 mmHg 94%
22:00 +19°C° 0.7 mm 0 mps 665 mmHg 94%
23:00 +21°C° 0.4 mm 1 mps 665 mmHg 94%

Tomorrow, 10 July, Friday

Time Temperature Precipitation Wind Pressure Humidity
00:00 +20°C° 0.4 mm 1 mps 664 mmHg 95%
01:00 +20°C° 0.4 mm 1 mps 664 mmHg 95%
02:00 +20°C° 0.1 mm 1 mps 664 mmHg 95%
03:00 +19°C° 0.1 mm 1 mps 664 mmHg 95%
04:00 +19°C° 0.1 mm 1 mps 663 mmHg 95%
05:00 +19°C° 0.1 mm 1 mps 664 mmHg 94%
06:00 +20°C° 0.1 mm 1 mps 664 mmHg 93%
07:00 +18°C° 0.1 mm 0 mps 665 mmHg 93%
08:00 +21°C° 0.3 mm 0 mps 665 mmHg 83%
09:00 +23°C° 0.3 mm 0 mps 666 mmHg 74%
10:00 +26°C° 0.3 mm 0 mps 667 mmHg 65%
11:00 +29°C° 0.3 mm 1 mps 667 mmHg 61%
12:00 +30°C° 0.3 mm 1 mps 666 mmHg 57%
13:00 +31°C° 0.3 mm 1 mps 666 mmHg 53%
14:00 +28°C° 1.8 mm 1 mps 665 mmHg 66%
15:00 +26°C° 1.8 mm 1 mps 664 mmHg 78%
16:00 +24°C° 1.8 mm 1 mps 663 mmHg 91%
17:00 +21°C° 1.5 mm 0 mps 663 mmHg 92%
18:00 +20°C° 1.5 mm 0 mps 663 mmHg 94%
19:00 +19°C° 1.5 mm 0 mps 664 mmHg 95%
20:00 +19°C° 0.6 mm 0 mps 664 mmHg 95%
21:00 +19°C° 0.6 mm 0 mps 665 mmHg 95%
22:00 +19°C° 0.6 mm 0 mps 666 mmHg 94%
23:00 +19°C° 0.5 mm 0 mps 665 mmHg 94%

Day after tomorrow, 11 July, Saturday

Time Temperature Precipitation Wind Pressure Humidity
00:00 +19°C° 0.5 mm 0 mps 665 mmHg 94%
01:00 +18°C° 0.5 mm 0 mps 665 mmHg 94%
02:00 +18°C° 0 mm 0 mps 664 mmHg 94%
03:00 +17°C° 0 mm 0 mps 664 mmHg 94%
04:00 +19°C° 0 mm 1 mps 664 mmHg 94%
05:00 +19°C° 0 mm 1 mps 664 mmHg 93%
06:00 +18°C° 0 mm 0 mps 664 mmHg 92%
07:00 +18°C° 0 mm 0 mps 665 mmHg 91%
08:00 +21°C° 0.1 mm 0 mps 665 mmHg 82%
09:00 +23°C° 0.1 mm 0 mps 666 mmHg 74%
10:00 +25°C° 0.1 mm 0 mps 667 mmHg 65%
11:00 +28°C° 0.3 mm 1 mps 666 mmHg 65%
12:00 +28°C° 0.3 mm 1 mps 665 mmHg 64%
13:00 +29°C° 0.3 mm 2 mps 665 mmHg 64%
14:00 +28°C° 1 mm 1 mps 664 mmHg 71%
15:00 +27°C° 1 mm 1 mps 663 mmHg 79%
16:00 +26°C° 1 mm 1 mps 663 mmHg 86%
17:00 +25°C° 1.6 mm 1 mps 663 mmHg 89%
18:00 +23°C° 1.6 mm 1 mps 663 mmHg 92%
19:00 +20°C° 1.6 mm 0 mps 664 mmHg 94%
20:00 +20°C° 1.1 mm 0 mps 664 mmHg 95%
21:00 +21°C° 1.1 mm 1 mps 664 mmHg 96%
22:00 +21°C° 1.1 mm 1 mps 665 mmHg 96%
23:00 +18°C° 0.3 mm 0 mps 665 mmHg 96%

12 July, Sunday

Time Temperature Precipitation Wind Pressure Humidity
00:00 +18°C° 0.3 mm 0 mps 664 mmHg 96%
01:00 +18°C° 0.3 mm 0 mps 664 mmHg 96%
02:00 +17°C° 0.2 mm 0 mps 664 mmHg 96%
03:00 +17°C° 0.2 mm 0 mps 664 mmHg 96%
04:00 +17°C° 0.2 mm 0 mps 664 mmHg 97%
05:00 +17°C° 0.1 mm 0 mps 664 mmHg 96%
06:00 +18°C° 0.1 mm 0 mps 665 mmHg 95%
07:00 +18°C° 0.1 mm 0 mps 665 mmHg 95%
08:00 +19°C° 0.5 mm 0 mps 666 mmHg 92%
09:00 +20°C° 0.5 mm 0 mps 666 mmHg 90%
10:00 +23°C° 0.5 mm 1 mps 667 mmHg 87%
11:00 +23°C° 0.8 mm 1 mps 666 mmHg 88%
12:00 +24°C° 0.8 mm 1 mps 666 mmHg 89%
13:00 +24°C° 0.8 mm 1 mps 665 mmHg 90%
14:00 +24°C° 0.5 mm 1 mps 665 mmHg 90%
15:00 +22°C° 0.5 mm 0 mps 664 mmHg 90%
16:00 +21°C° 0.5 mm 0 mps 664 mmHg 91%
17:00 +21°C° 0.6 mm 0 mps 664 mmHg 93%
18:00 +20°C° 0.6 mm 0 mps 664 mmHg 95%
19:00 +19°C° 0.6 mm 0 mps 664 mmHg 97%
20:00 +19°C° 0.6 mm 0 mps 665 mmHg 97%
21:00 +18°C° 0.6 mm 0 mps 665 mmHg 97%
22:00 +18°C° 0.6 mm 0 mps 666 mmHg 96%
23:00 +18°C° 0.5 mm 0 mps 665 mmHg 96%

13 July, Monday

Time Temperature Precipitation Wind Pressure Humidity
00:00 +18°C° 0.5 mm 0 mps 665 mmHg 97%
01:00 +18°C° 0.5 mm 0 mps 665 mmHg 97%
02:00 +18°C° 0.1 mm 0 mps 664 mmHg 97%
03:00 +17°C° 0.1 mm 0 mps 664 mmHg 97%
04:00 +17°C° 0.1 mm 0 mps 664 mmHg 97%
05:00 +18°C° 0 mm 0 mps 665 mmHg 96%
06:00 +18°C° 0 mm 0 mps 665 mmHg 96%
07:00 +18°C° 0 mm 0 mps 665 mmHg 95%
08:00 +20°C° 0.3 mm 0 mps 666 mmHg 88%
09:00 +24°C° 0.3 mm 1 mps 666 mmHg 81%
10:00 +26°C° 0.3 mm 1 mps 667 mmHg 74%
11:00 +26°C° 0.7 mm 1 mps 667 mmHg 73%
12:00 +27°C° 0.7 mm 1 mps 666 mmHg 73%
13:00 +27°C° 0.7 mm 1 mps 666 mmHg 73%
14:00 +27°C° 1 mm 1 mps 665 mmHg 76%
15:00 +26°C° 1 mm 1 mps 664 mmHg 80%
16:00 +25°C° 1 mm 1 mps 664 mmHg 84%
17:00 +24°C° 1.8 mm 1 mps 664 mmHg 88%
18:00 +23°C° 1.8 mm 1 mps 664 mmHg 92%
19:00 +21°C° 1.8 mm 1 mps 664 mmHg 96%
20:00 +21°C° 1.2 mm 1 mps 665 mmHg 96%
21:00 +21°C° 1.2 mm 1 mps 665 mmHg 96%
22:00 +20°C° 1.2 mm 1 mps 665 mmHg 97%
23:00 +18°C° 0.3 mm 0 mps 665 mmHg 96%

14 July, Tuesday

Time Temperature Precipitation Wind Pressure Humidity
00:00 +18°C° 0.3 mm 0 mps 665 mmHg 96%
01:00 +17°C° 0.3 mm 0 mps 664 mmHg 96%
02:00 +17°C° 0.1 mm 0 mps 664 mmHg 96%
03:00 +17°C° 0.1 mm 0 mps 664 mmHg 96%
04:00 +17°C° 0.1 mm 0 mps 664 mmHg 96%
05:00 +17°C° 0 mm 0 mps 664 mmHg 95%
06:00 +18°C° 0 mm 0 mps 665 mmHg 94%
07:00 +18°C° 0 mm 0 mps 665 mmHg 93%
08:00 +21°C° 0.1 mm 0 mps 666 mmHg 82%
09:00 +24°C° 0.1 mm 0 mps 667 mmHg 71%
10:00 +26°C° 0.1 mm 0 mps 668 mmHg 60%
11:00 +28°C° 0.5 mm 1 mps 667 mmHg 63%
12:00 +28°C° 0.5 mm 1 mps 666 mmHg 65%
13:00 +28°C° 0.5 mm 2 mps 666 mmHg 68%
14:00 +27°C° 1.7 mm 1 mps 665 mmHg 76%
15:00 +26°C° 1.7 mm 1 mps 664 mmHg 84%
16:00 +24°C° 1.7 mm 1 mps 663 mmHg 92%
17:00 +23°C° 1.8 mm 1 mps 664 mmHg 93%
18:00 +22°C° 1.8 mm 1 mps 664 mmHg 94%
19:00 +20°C° 1.8 mm 0 mps 664 mmHg 95%
20:00 +21°C° 0.3 mm 1 mps 665 mmHg 94%
21:00 +21°C° 0.3 mm 1 mps 665 mmHg 94%
22:00 +20°C° 0.3 mm 1 mps 665 mmHg 94%
23:00 +20°C° 0.1 mm 1 mps 665 mmHg 94%
Show more